KB1NHL Weather Reports


Display with metric or nautical units.
time (UTC)temp
F
wind
direction
speed
MPH
gust
MPH
rain 1hr
in
rain 24hr
in
rain mn
in
humidity
%
barometer
mb
20240223173346 40 163 0.0 0.0 0.00 0.10 0.09 97 998.0
20240223172834 40 172 0.0 0.0 0.00 0.10 0.09 97 997.9
20240223172323 40 172 0.0 0.0 0.00 0.10 0.09 97 998.1
20240223171836 40 172 0.0 0.0 0.00 0.10 0.09 97 998.1
20240223171345 39 172 0.0 0.0 0.00 0.10 0.09 97 998.2
20240223170836 39 172 0.0 0.0 0.00 0.10 0.09 97 998.3
20240223170324 39 172 0.0 0.0 0.00 0.10 0.09 97 998.4
20240223165831 39 172 0.0 0.0 0.00 0.10 0.09 97 998.5
20240223165340 39 172 0.0 0.0 0.00 0.10 0.09 97 998.5
20240223164849 39 173 0.0 0.0 0.00 0.10 0.09 97 998.5
20240223164340 39 172 0.0 0.0 0.00 0.10 0.09 97 998.4
20240223163849 39 172 0.0 0.0 0.00 0.10 0.09 97 998.5
20240223163337 39 172 0.0 0.0 0.00 0.10 0.09 97 998.4
20240223162849 39 172 0.0 2.0 0.00 0.10 0.09 97 998.5
20240223162336 39 172 0.0 2.0 0.00 0.10 0.09 97 998.5
20240223161829 39 172 0.0 4.0 0.00 0.10 0.09 97 998.5
20240223161341 39 171 2.0 4.0 0.00 0.10 0.09 97 998.8
20240223160850 39 155 2.0 3.0 0.00 0.10 0.09 97 998.8
20240223160338 39 155 0.0 0.0 0.00 0.10 0.09 97 998.8
20240223155827 39 155 0.0 0.0 0.00 0.10 0.09 97 998.7
20240223155336 38 155 0.0 0.0 0.00 0.10 0.09 97 998.9
20240223154825 38 155 0.0 3.0 0.00 0.10 0.09 97 998.9
20240223154334 38 155 0.0 4.0 0.00 0.10 0.09 97 999.2
20240223153823 38 155 2.0 4.0 0.00 0.10 0.09 97 999.2
20240223153336 38 161 0.0 3.0 0.00 0.10 0.09 97 999.2
20240223152824 38 162 1.0 3.0 0.00 0.10 0.09 97 999.2
20240223152353 38 161 2.0 3.0 0.00 0.10 0.09 97 999.4
20240223151842 38 161 2.0 3.0 0.00 0.10 0.09 97 999.3
20240223151351 38 162 1.0 3.0 0.00 0.10 0.09 97 999.3
20240223150839 38 153 2.0 4.0 0.00 0.10 0.09 97 999.5
20240223150328 38 153 2.0 4.0 0.00 0.10 0.09 97 999.5
20240223145855 39 156 3.0 4.0 0.00 0.10 0.09 97 999.5
20240223145322 39 165 1.0 3.0 0.00 0.10 0.09 97 999.5
20240223144831 39 165 1.0 3.0 0.00 0.10 0.09 97 999.5
20240223144340 39 165 1.0 3.0 0.00 0.10 0.09 97 999.5
20240223143833 39 179 0.0 0.0 0.00 0.10 0.09 97 999.4
20240223143402 39 279 0.0 0.0 0.00 0.10 0.09 97 999.5
20240223142829 39 279 0.0 0.0 0.00 0.10 0.09 97 999.6
20240223142339 39 279 0.0 0.0 0.00 0.10 0.09 97 999.5
20240223141827 39 279 0.0 0.0 0.00 0.10 0.09 97 999.5
20240223141336 39 279 0.0 0.0 0.00 0.10 0.09 97 999.9
20240223140825 38 279 0.0 0.0 0.00 0.10 0.09 97 999.9
20240223140334 38 279 0.0 0.0 0.00 0.10 0.09 97 999.9
20240223135841 38 279 0.0 0.0 0.00 0.10 0.09 97 999.8
20240223135329 38 279 0.0 0.0 0.00 0.10 0.09 97 999.8
20240223134823 38 279 0.0 0.0 0.00 0.10 0.09 97 999.8
20240223134354 38 279 0.0 0.0 0.00 0.10 0.09 97 1000.2
20240223133902 38 279 0.0 0.0 0.00 0.10 0.09 97 1000.3
20240223133330 38 279 0.0 0.0 0.00 0.10 0.09 97 1000.3
20240223132822 38 279 0.0 0.0 0.00 0.10 0.09 97 1000.2
20240223132331 38 279 0.0 0.0 0.00 0.10 0.09 97 1000.0
20240223131840 38 279 0.0 1.0 0.00 0.10 0.09 97 1000.1
20240223131329 38 288 0.0 2.0 0.00 0.10 0.09 97 1000.0
20240223130837 37 271 0.0 2.0 0.00 0.10 0.09 97 1000.0
20240223130326 37 280 0.0 0.0 0.00 0.10 0.09 97 1000.1
20240223125856 37 275 0.0 1.0 0.00 0.10 0.09 97 1000.2
20240223125328 37 281 0.0 1.0 0.00 0.10 0.09 97 1000.1
20240223124837 37 290 0.0 0.0 0.00 0.10 0.09 97 1000.2
20240223124328 37 291 0.0 2.0 0.00 0.10 0.09 97 1000.2
20240223123837 37 290 0.0 2.0 0.00 0.10 0.09 97 1000.2
20240223123327 37 315 0.0 3.0 0.00 0.10 0.09 97 1000.6
20240223122835 37 306 1.0 3.0 0.00 0.10 0.09 97 1000.9
20240223122324 37 294 1.0 3.0 0.00 0.10 0.09 97 1000.5
20240223121833 37 287 1.0 3.0 0.00 0.10 0.09 97 1000.4
20240223121402 37 286 1.0 3.0 0.00 0.10 0.09 97 1000.5
20240223120834 37 302 0.0 2.0 0.00 0.10 0.09 97 1000.7
20240223120322 37 302 0.0 2.0 0.00 0.10 0.09 97 1000.7
20240223115832 37 275 0.0 3.0 0.00 0.10 0.09 97 1000.6
20240223115341 37 277 1.0 3.0 0.00 0.10 0.09 96 1000.4
20240223114850 37 284 1.0 4.0 0.00 0.10 0.09 96 1000.4
20240223114338 37 281 1.0 4.0 0.00 0.10 0.09 97 1000.4
20240223113827 37 298 1.0 4.0 0.00 0.10 0.09 96 1000.8
20240223113335 37 299 2.0 4.0 0.00 0.10 0.09 96 1000.9
20240223112824 37 298 3.0 4.0 0.00 0.10 0.09 96 1000.9
20240223112336 37 299 2.0 4.0 0.00 0.10 0.09 96 1001.1
20240223111829 37 308 1.0 4.0 0.00 0.10 0.09 96 1001.1
20240223111358 37 317 2.0 4.0 0.00 0.10 0.09 96 1001.1
20240223110849 37 307 1.0 3.0 0.01 0.10 0.09 96 1001.2
20240223110337 37 307 1.0 3.0 0.01 0.10 0.09 96 1001.3
20240223105843 37 314 3.0 5.0 0.01 0.10 0.09 96 1001.3
20240223104843 37 300 2.0 5.0 0.01 0.10 0.09 96 1001.4
20240223104331 37 294 3.0 10.0 0.01 0.10 0.09 96 1001.4
20240223103823 37 346 4.0 10.0 0.01 0.10 0.09 96 1001.5
20240223103332 37 332 4.0 9.0 0.01 0.10 0.09 96 1001.5
20240223102844 37 323 2.0 7.0 0.01 0.10 0.09 96 1001.5
20240223102334 37 300 4.0 7.0 0.01 0.10 0.09 96 1001.5
20240223101827 37 306 3.0 8.0 0.01 0.10 0.09 96 1001.7
20240223101336 37 304 2.0 9.0 0.01 0.10 0.09 96 1001.7
20240223100825 37 321 5.0 10.0 0.00 0.09 0.08 96 1001.7
20240223100337 37 311 5.0 10.0 0.00 0.09 0.08 96 1001.8
20240223095823 37 298 4.0 12.0 0.00 0.09 0.08 96 1001.8
20240223095332 37 331 5.0 9.0 0.00 0.09 0.08 96 1001.8
20240223094821 37 319 4.0 9.0 0.00 0.09 0.08 96 1001.9
20240223094333 37 306 4.0 10.0 0.01 0.09 0.08 96 1001.9
20240223093826 37 308 4.0 10.0 0.01 0.09 0.08 96 1001.9
20240223093335 37 319 3.0 9.0 0.01 0.09 0.08 96 1002.0
20240223092824 37 300 4.0 9.0 0.01 0.09 0.08 96 1002.1
20240223092335 37 317 2.0 9.0 0.01 0.09 0.08 96 1002.2
20240223091844 37 317 3.0 9.0 0.02 0.09 0.08 96 1002.3
20240223091332 36 322 4.0 9.0 0.02 0.09 0.08 96 1002.3
20240223090824 36 308 5.0 9.0 0.02 0.09 0.08 96 1002.5
20240223090333 36 309 5.0 9.0 0.02 0.09 0.08 96 1002.5
20240223085840 36 321 3.0 10.0 0.02 0.09 0.08 96 1002.7
20240223085329 36 344 3.0 11.0 0.02 0.09 0.08 96 1003.0
20240223084821 36 347 5.0 11.0 0.03 0.09 0.08 96 1003.1
20240223084350 36 19 4.0 13.0 0.02 0.08 0.07 96 1003.2
20240223083838 36 346 3.0 14.0 0.03 0.08 0.07 96 1003.3
20240223083327 36 321 5.0 14.0 0.03 0.08 0.07 96 1003.4
20240223082836 36 22 6.0 11.0 0.04 0.08 0.07 96 1003.4
20240223082328 36 35 3.0 13.0 0.04 0.08 0.07 96 1003.5
20240223081837 36 43 2.0 13.0 0.04 0.07 0.06 96 1003.6
20240223081349 36 319 3.0 11.0 0.04 0.07 0.06 96 1003.7
20240223080857 36 40 5.0 11.0 0.05 0.07 0.06 96 1003.8
20240223080325 36 317 3.0 11.0 0.05 0.07 0.06 96 1003.9
20240223075832 36 5 3.0 12.0 0.06 0.07 0.06 96 1003.9
20240223075348 36 360 6.0 12.0 0.06 0.07 0.06 95 1003.9
20240223074856 36 30 4.0 11.0 0.05 0.06 0.05 95 1004.0
20240223074323 36 329 4.0 11.0 0.05 0.06 0.05 95 1004.1
20240223073832 36 16 5.0 12.0 0.04 0.05 0.04 95 1004.2
20240223072833 35 26 6.0 12.0 0.03 0.04 0.03 95 1004.4
20240223072322 35 26 5.0 13.0 0.03 0.04 0.03 95 1004.4
20240223071851 35 26 4.0 13.0 0.02 0.03 0.02 95 1004.5
20240223071339 35 360 6.0 13.0 0.02 0.03 0.02 95 1004.6
20240223070847 35 345 5.0 12.0 0.01 0.02 0.01 95 1004.7
20240223070338 35 30 4.0 14.0 0.01 0.02 0.01 95 1004.7
20240223065829 35 37 7.0 14.0 0.00 0.01 0.00 95 1004.8
20240223065338 35 341 6.0 11.0 0.00 0.01 0.00 94 1004.9
20240223064827 35 15 5.0 10.0 0.00 0.01 0.00 94 1005.0
20240223064336 35 40 5.0 11.0 0.00 0.01 0.00 94 1004.9
20240223063844 35 37 5.0 11.0 0.00 0.01 0.00 94 1005.0
20240223063332 35 24 4.0 10.0 0.00 0.01 0.00 94 1004.8
20240223062821 35 23 5.0 10.0 0.00 0.01 0.00 94 1004.8
20240223062330 35 42 3.0 9.0 0.00 0.01 0.00 94 1004.8
20240223061839 35 32 4.0 9.0 0.00 0.01 0.00 94 1004.9
20240223061328 35 32 3.0 9.0 0.00 0.01 0.00 94 1004.9
20240223060821 34 50 2.0 7.0 0.00 0.01 0.00 94 1004.9
20240223060330 34 323 2.0 12.0 0.00 0.01 0.00 94 1005.1
20240223055836 34 17 4.0 12.0 0.00 0.01 0.00 94 1005.2
20240223055345 34 327 3.0 12.0 0.00 0.01 0.00 94 1005.3
20240223054836 34 15 4.0 13.0 0.00 0.01 0.00 94 1005.4
20240223054325 34 342 7.0 13.0 0.00 0.01 0.00 94 1005.5
20240223053854 34 5 6.0 13.0 0.00 0.01 0.00 94 1005.6
20240223053322 34 15 6.0 13.0 0.00 0.01 0.00 94 1005.7
20240223052833 34 26 5.0 17.0 0.01 0.01 0.00 94 1005.7
20240223052322 34 22 5.0 17.0 0.01 0.01 0.00 93 1005.8
20240223051835 34 319 4.0 11.0 0.01 0.01 0.00 93 1005.9
20240223051347 34 22 5.0 12.0 0.01 0.01 0.00 93 1006.0
20240223050835 34 34 4.0 12.0 0.01 0.01 0.00 93 1005.9
20240223050344 34 5 2.0 11.0 0.01 0.01 0.00 93 1006.1
20240223045849 34 11 4.0 11.0 0.01 0.01 0.01 93 1006.1
20240223045336 34 35 5.0 11.0 0.01 0.01 0.01 93 1006.0
20240223044825 34 13 6.0 13.0 0.01 0.01 0.01 93 1006.1
20240223044334 34 22 6.0 13.0 0.01 0.01 0.01 92 1006.2
20240223043823 34 53 4.0 11.0 0.01 0.01 0.01 92 1006.2
20240223043332 34 42 5.0 11.0 0.01 0.01 0.01 92 1006.3
20240223042820 34 28 4.0 12.0 0.00 0.00 0.00 92 1006.5
20240223042333 34 82 7.0 15.0 0.00 0.00 0.00 91 1006.6
20240223041822 34 64 8.0 16.0 0.00 0.00 0.00 91 1006.7
20240223041351 34 50 7.0 16.0 0.00 0.00 0.00 91 1006.8
20240223040822 34 49 5.0 15.0 0.00 0.00 0.00 91 1007.0
20240223040351 34 50 10.0 16.0 0.00 0.00 0.00 91 1007.0
20240223035837 34 31 7.0 17.0 0.00 0.00 0.00 91 1007.2
20240223035325 34 48 6.0 13.0 0.00 0.00 0.00 91 1007.2
20240223034835 34 49 3.0 13.0 0.00 0.00 0.00 91 1007.2
20240223034323 34 49 7.0 13.0 0.00 0.00 0.00 91 1007.1
20240223033832 34 40 4.0 12.0 0.00 0.00 0.00 91 1007.2
20240223033325 34 37 4.0 12.0 0.00 0.00 0.00 91 1007.3
20240223032834 34 34 1.0 10.0 0.00 0.00 0.00 91 1007.3
20240223032346 34 355 5.0 10.0 0.00 0.00 0.00 91 1007.3
20240223031837 34 48 2.0 10.0 0.00 0.00 0.00 91 1007.5
20240223031325 34 50 4.0 10.0 0.00 0.00 0.00 91 1007.4
20240223030837 34 55 4.0 12.0 0.00 0.00 0.00 90 1007.4
20240223030326 34 54 5.0 12.0 0.00 0.00 0.00 90 1007.6
20240223025833 34 22 5.0 13.0 0.00 0.00 0.00 90 1007.8
20240223025325 34 55 8.0 13.0 0.00 0.00 0.00 89 1007.9
20240223024818 34 59 7.0 13.0 0.00 0.00 0.00 89 1008.0
20240223024350 34 79 6.0 11.0 0.00 0.00 0.00 89 1008.2
20240223023837 33 27 5.0 13.0 0.00 0.00 0.00 89 1008.1
20240223023326 33 37 7.0 15.0 0.00 0.00 0.00 89 1007.9
20240223022835 33 71 4.0 15.0 0.00 0.00 0.00 88 1008.0
20240223022323 33 15 5.0 12.0 0.00 0.00 0.00 88 1008.3
20240223021833 33 39 5.0 12.0 0.00 0.00 0.00 88 1008.3
20240223021321 33 344 6.0 12.0 0.00 0.00 0.00 88 1008.2
20240223020831 33 347 5.0 12.0 0.00 0.00 0.00 88 1008.3
20240223020359 33 19 6.0 14.0 0.00 0.00 0.00 87 1008.6
20240223015825 34 50 9.0 14.0 0.00 0.00 0.00 87 1008.8
20240223015321 34 42 5.0 12.0 0.00 0.00 0.00 87 1008.8
20240223014829 34 78 4.0 14.0 0.00 0.00 0.00 86 1009.0
20240223014338 34 69 4.0 15.0 0.00 0.00 0.00 85 1008.8
20240223013826 34 98 7.0 15.0 0.00 0.00 0.00 85 1008.7
20240223013336 34 44 6.0 12.0 0.00 0.00 0.00 84 1008.6
20240223012824 34 38 6.0 12.0 0.00 0.00 0.00 84 1008.4
20240223012336 34 62 4.0 12.0 0.00 0.00 0.00 84 1008.4
20240223011846 34 35 6.0 14.0 0.00 0.00 0.00 83 1008.4
20240223011334 34 32 7.0 14.0 0.00 0.00 0.00 83 1008.4
20240223010830 34 46 4.0 12.0 0.00 0.00 0.00 83 1008.5
20240223010339 34 12 4.0 16.0 0.00 0.00 0.00 82 1008.5
20240223005825 34 62 6.0 16.0 0.00 0.00 0.00 82 1008.9
20240223005334 34 41 10.0 16.0 0.00 0.00 0.00 81 1008.9
20240223004823 34 61 6.0 13.0 0.00 0.00 0.00 81 1008.9
20240223004352 34 57 4.0 13.0 0.00 0.00 0.00 81 1008.9
20240223003820 34 31 2.0 13.0 0.00 0.00 0.00 80 1008.9
20240223003332 34 53 5.0 13.0 0.00 0.00 0.00 80 1009.0
20240223002820 34 40 6.0 13.0 0.00 0.00 0.00 79 1009.2
20240223002332 35 54 5.0 14.0 0.00 0.00 0.00 79 1009.3
20240223001825 35 55 6.0 14.0 0.00 0.00 0.00 79 1009.1
20240223001354 35 66 5.0 10.0 0.00 0.00 0.00 78 1009.1
20240223000822 35 22 6.0 10.0 0.00 0.00 0.00 78 1009.1
20240223000332 35 53 4.0 9.0 0.00 0.00 0.00 78 1009.1
20240222235838 35 322 4.0 12.0 0.00 0.00 0.00 77 1008.9
20240222235346 35 24 6.0 12.0 0.00 0.00 0.00 77 1009.0
20240222234834 35 349 5.0 12.0 0.00 0.00 0.00 77 1009.0
20240222234323 35 35 6.0 13.0 0.00 0.00 0.00 77 1009.2
20240222233852 35 44 4.0 13.0 0.00 0.00 0.00 78 1009.3
20240222233320 35 40 3.0 12.0 0.00 0.00 0.00 78 1009.4
20240222232832 35 37 6.0 10.0 0.00 0.00 0.00 79 1009.3
20240222232324 35 41 4.0 9.0 0.00 0.00 0.00 80 1009.2
20240222231836 35 62 3.0 9.0 0.00 0.00 0.00 80 1009.2
20240222231325 35 15 3.0 7.0 0.00 0.00 0.00 81 1009.3
20240222230837 35 307 3.0 5.0 0.00 0.00 0.00 81 1009.3
20240222230349 35 325 2.0 6.0 0.00 0.00 0.00 81 1009.4
20240222225855 35 346 2.0 7.0 0.00 0.00 0.00 81 1009.4
20240222225322 35 327 2.0 9.0 0.00 0.00 0.00 80 1009.5
20240222224831 35 309 4.0 9.0 0.00 0.00 0.00 80 1009.3
20240222224343 35 288 3.0 7.0 0.00 0.00 0.00 80 1009.6
20240222223851 35 294 4.0 10.0 0.00 0.00 0.00 79 1009.5
20240222223339 35 317 3.0 10.0 0.00 0.00 0.00 79 1009.5
20240222222832 35 332 4.0 11.0 0.00 0.00 0.00 79 1009.4
20240222222321 35 315 3.0 11.0 0.00 0.00 0.00 79 1009.3
20240222221830 35 309 5.0 10.0 0.00 0.00 0.00 78 1009.5
20240222221358 35 334 5.0 10.0 0.00 0.00 0.00 78 1009.6
20240222220847 36 340 4.0 10.0 0.00 0.00 0.00 77 1009.8
20240222220337 36 319 5.0 11.0 0.00 0.00 0.00 77 1009.8
20240222215824 36 323 4.0 12.0 0.00 0.00 0.00 77 1010.2
20240222215336 36 304 4.0 12.0 0.00 0.00 0.00 76 1010.1
20240222214824 36 11 6.0 10.0 0.00 0.00 0.00 76 1009.9
20240222214333 37 323 5.0 11.0 0.00 0.00 0.00 75 1009.9
20240222213826 37 340 4.0 12.0 0.00 0.00 0.00 74 1009.9
20240222213335 37 321 4.0 12.0 0.00 0.00 0.00 73 1009.9
20240222212824 38 325 6.0 11.0 0.00 0.00 0.00 72 1009.9
20240222212333 39 321 5.0 12.0 0.00 0.00 0.00 70 1009.8
20240222211821 39 313 3.0 13.0 0.00 0.00 0.00 67 1009.9
20240222211333 39 46 6.0 13.0 0.00 0.00 0.00 66 1010.0
20240222210842 40 37 4.0 11.0 0.00 0.00 0.00 66 1010.3
20240222210330 40 55 2.0 10.0 0.00 0.00 0.00 65 1010.3
20240222205820 40 51 3.0 13.0 0.00 0.00 0.00 65 1010.3
20240222205329 41 290 6.0 13.0 0.00 0.00 0.00 64 1010.3
20240222204822 41 349 4.0 12.0 0.00 0.00 0.00 64 1010.5
20240222204330 41 346 6.0 11.0 0.00 0.00 0.00 64 1010.5
20240222203822 41 67 6.0 11.0 0.00 0.00 0.00 64 1010.5
20240222203331 41 31 0.0 9.0 0.00 0.00 0.00 67 1010.7
20240222202820 40 42 4.0 11.0 0.00 0.00 0.00 66 1010.8
20240222202329 41 309 5.0 13.0 0.00 0.00 0.00 66 1010.6
20240222201858 41 328 6.0 13.0 0.00 0.00 0.00 65 1010.8
20240222201326 41 42 3.0 9.0 0.00 0.00 0.00 66 1011.0
20240222200835 41 17 3.0 9.0 0.00 0.00 0.00 66 1010.9
20240222200327 40 51 2.0 13.0 0.00 0.00 0.00 67 1011.0
20240222195837 40 32 5.0 13.0 0.00 0.00 0.00 66 1011.2
20240222195326 40 350 2.0 11.0 0.00 0.00 0.00 67 1011.2
20240222194835 40 50 7.0 11.0 0.00 0.00 0.00 66 1011.3
20240222194324 40 314 5.0 12.0 0.00 0.00 0.00 65 1011.3
20240222193836 40 340 6.0 12.0 0.00 0.00 0.00 65 1011.4
20240222193344 40 340 4.0 12.0 0.00 0.00 0.00 65 1011.6
20240222192832 40 319 6.0 12.0 0.00 0.00 0.00 65 1011.8
20240222192321 40 321 3.0 10.0 0.00 0.00 0.00 64 1011.9
20240222191830 40 13 5.0 14.0 0.00 0.00 0.00 64 1011.8
20240222191323 40 73 5.0 11.0 0.00 0.00 0.00 64 1012.1
20240222190832 40 328 3.0 11.0 0.00 0.00 0.00 63 1012.1
20240222190343 41 323 6.0 15.0 0.00 0.00 0.00 62 1012.3
20240222185829 40 100 3.0 15.0 0.00 0.00 0.00 63 1012.3
20240222185338 40 73 6.0 13.0 0.00 0.00 0.00 62 1012.5
20240222184849 40 82 3.0 14.0 0.00 0.00 0.00 63 1012.5
20240222184337 40 104 3.0 14.0 0.00 0.00 0.00 63 1012.6
20240222183846 40 67 7.0 14.0 0.00 0.00 0.00 62 1012.5
20240222183334 39 88 4.0 12.0 0.00 0.00 0.00 64 1012.6
20240222182843 39 88 3.0 12.0 0.00 0.00 0.00 63 1012.7
20240222182328 39 104 5.0 13.0 0.00 0.00 0.00 65 1012.9
20240222181824 39 42 5.0 13.0 0.00 0.00 0.00 64 1012.9
20240222181333 39 288 6.0 11.0 0.00 0.00 0.00 64 1012.9
20240222180819 39 27 2.0 11.0 0.00 0.00 0.00 65 1012.8
20240222180331 39 351 5.0 10.0 0.00 0.00 0.00 65 1012.9
20240222175858 38 305 3.0 11.0 0.00 0.00 0.00 65 1013.0
20240222175342 38 44 4.0 13.0 0.00 0.00 0.00 65 1013.0
20240222174849 39 44 6.0 13.0 0.00 0.00 0.00 64 1013.0
20240222174336 39 292 3.0 9.0 0.00 0.00 0.00 64 1013.0
20240222173825 38 80 4.0 10.0 0.00 0.00 0.00 65 1013.4